Regional Weather Roundup
Issued by NWS Charleston, SC

Current Version | Previous Version | Graphics & Text | Print | Product List | Glossary On
Versions: 1 2 3 4 5 6 7 8 9 10 11 12 13 14 15 16 17 18 19 20 21 22 23 24 25 26 27 28 29 30 31 32 33 34 35 36 37 38 39 40 41 42 43 44 45 46 47 48 49 50
333
ASUS42 KCHS 060328
RWRCHS

REGIONAL WEATHER ROUNDUP
NATIONAL WEATHER SERVICE CHARLESTON SC
1100 PM EDT THU MAY 05 2016

NOTE: "FAIR" INDICATES FEW OR NO CLOUDS BELOW 12,000 FEET WITH NO
SIGNIFICANT WEATHER AND/OR OBSTRUCTIONS TO VISIBILITY.

NOT ALL STATIONS ARE QUALITY CONTROLLED. USE DATA WITH CAUTION...
ESPECIALLY DEWPOINT OBSERVATIONS.

SCZ027-030-031-034>040-042>050-060400-
...SOUTHEAST SOUTH CAROLINA...

CITY           SKY/WX    TMP DP  RH WIND       PRES   REMARKS
N CHARLESTON   PTCLDY    57  42  57 W7        29.73S
WATERFRONT PRK   N/A     60  44  55 W5        29.73R
MOUNT PLEASANT MOCLDY    57  45  62 CALM      29.74S
JOHNS ISLAND   FAIR      57  41  54 W7        29.75R
PINOPOLIS        N/A     61  48  63 W14       29.63F
MONCKS CORNER  FAIR      50  39  66 CALM      29.74R
SUMMERVILLE    FAIR      52  45  76 W3        29.75S
BEAUFORT MCAS  CLEAR     59  40  49 W14       29.76S
BEAUFORT ARPT  FAIR      59  41  51 W14       29.76S
HILTON HEAD IS CLOUDY    59  41  51 W8        29.78S
WALTERBORO     CLEAR     55  45  67 W6        29.76S
ALLENDALE      FAIR      52  45  76 CALM      29.77R

...SOUTHERN MIDLANDS AND PEE DEE...

CITY           SKY/WX    TMP DP  RH WIND       PRES   REMARKS
GEORGETOWN     CLOUDY    52  46  82 W6        29.75R
KINGSTREE      MOCLDY    52  45  76 NW5       29.75R
ORANGEBURG     MOCLDY    54  43  66 W9        29.75R
BARNWELL       FAIR      54  48  82 W5        29.77S
AIKEN          FAIR      46  43  87 W6        29.80R
MANNING        CLOUDY    54  45  71 N9        29.76R
COLUMBIA       PTCLDY    54  46  74 N7        29.77R
SUMTER         CLOUDY    52  46  82 N12       29.74R
FLORENCE       CLOUDY    52  44  74 NW9       29.74R
MYRTLE BEACH   PTCLDY    54  41  62 W7        29.74R
N MYRTLE BEACH LGT RAIN  53  48  83 NW5       29.70R

$$

GAZ063-065-086>088-099>101-113>116-118-119-134>141-150-060400-
...SOUTHEAST GEORGIA...

CITY           SKY/WX    TMP DP  RH WIND       PRES   REMARKS
SAVANNAH ARPT  CLOUDY    57  43  59 W8        29.78S
HUNTER AAF     CLOUDY    59  43  55 W9        29.76S
FORT STEWART   CLOUDY    59  42  54 W2        29.78R
STATESBORO     CLEAR     57  49  74 W8        29.79S
SYLVANIA       CLEAR     55  47  75 NW6       29.79S
CLAXTON        FAIR      55  47  73 W8        29.81R

...CSRA...CENTRAL AND FAR SOUTHEAST GEORGIA...

CITY           SKY/WX    TMP DP  RH WIND       PRES   REMARKS
THOMSON        CLEAR     52  48  86 W5        29.85R
AUGUSTA-BUSH   CLEAR     51  46  83 CALM      29.78R
AUGUSTA-DANIEL CLEAR     54  45  71 W8        29.78R
SWAINSBORO     FAIR      52  45  76 NW7       29.82R
VIDALIA        PTCLDY    54  45  71 W5        29.82R
EASTMAN        FAIR      54  46  72 NW5       29.87R
HAZLEHURST     MOCLDY    56  46  69 CALM      29.83R
ALMA           MOCLDY    56  44  64 VRB6      29.83R
WAYCROSS       CLEAR     56  45  66 N7        29.83R
JESUP          MOCLDY    61  46  59 NW6       29.83R
BAXLEY         MOCLDY    57  45  62 NW5       29.83S
BRUNSWICK      CLEAR     63  46  55 CALM      29.81S
SAINT SIMONS   CLEAR     63  44  50 NW10G20   29.80R

$$

SCZ027-028-034-036>038-045-046-048>050-GAZ119-141-060400-
...LAKE AND SUPPLEMENTAL COASTAL OBSERVATIONS...

STATION/POSITION TIME  TEMP    WIND        PRES    WAVE   SWELL
                       AIR SEA DIR/SP/G            HT/PER HT/PER/DIR
                 (UTC) (F)     (DEG/KT/KT) (MB)    (FT/S) (FT/S/D)
WINYAH BAY       0200   56     260/  3     1005.0S
LAKE MURRAY      0200   58      40/  3/  6 1006.8R
ACE BASIN NERRS  0200   58     290/  2     1008.0R
FORT PULASKI     0300   62 72              1008.4F
SAPELO ISLAND    0300   61     340/  9     1009.0R

$$

ANZ835-935-AMZ111-154-330-350-352-354-370-450-454-472-060400-
...C-MAN AND BUOY OBSERVATIONS...

STATION/POSITION TIME  TEMP    WIND        PRES    WAVE   SWELL
                       AIR SEA DIR/SP/G            HT/PER HT/PER/DIR
                 (UTC) (F)     (DEG/KT/KT) (MB)    (FT/S) (FT/S/D)
BUOY 41004       0250   65 73  310/ 23/ 27 1005.8R   6/ 6   2/11
BUOY 41008       NOT AVBL
FOLLY BEACH CMAN 0300   58     270/  5/  7 1007.4R
CAPERS NEARSHORE 0208   63 70  290/ 17/ 23 1006.3R
FRIPP NEARSHORE  0308   63 69  290/ 17/ 21 1007.0F


STATION/POSITION TIME  TEMP    WIND        PRES    WAVE   SWELL
                       AIR SEA DIR/SP/G            HT/PER HT/PER/DIR
                 (UTC) (F)     (DEG/KT/KT) (MB)    (FT/S) (FT/S/D)
5E ST. MARYS GA  0221      71                N/A     2/ 4
FRYING PAN BUOY  0300   63 72  290/ 16/ 19 1005.0R
BUOY 41025       0250   55 76  360/ 17/ 21 1002.5R   5/ 8   2/ 30/ 8
CAPE LOOKOUT NC  0300   56     350/  9/ 12 1003.5R
BUOY 41002       0250   71 74  260/ 19/ 23 1005.2R  10/ 8
BUOY 41010       0220   74 78  240/ 10/ 12 1007.9R
ST AUGUSTINE FL  0300   65 71  320/  8/  9 1010.4R


$$




USA.gov is the U.S. government's official web portal to all federal, state and local government web resources and services.